MB7IWY-13 Weather Reports


time (UTC)temp
C
wind
direction
speed
KPH
gust
KPH
rain 1hr
cm
rain 24hr
cm
rain mn
cm
humidity
%
barometer
mb
20260902143603 16 157 14.5 14.5 0.00 0.53 0.53 90 1034.9
20260902142705 16 157 14.5 14.5 0.05 0.53 0.53 87 1035.9
20260902141803 16 157 14.5 14.5 0.05 0.53 0.53 87 1035.9
20260902140903 16 183 17.7 32.2 0.05 0.53 0.53 87 1035.9
20260902140003 17 247 32.2 32.2 0.05 0.53 0.53 82 1035.9
20260902135403 17 247 32.2 32.2 0.05 0.53 0.53 82 1035.9
20260902134524 17 247 32.2 32.2 0.05 0.53 0.53 82 1035.9
20260902133603 17 247 32.2 32.2 0.05 0.53 0.53 82 1035.9
20260902132724 17 247 32.2 32.2 0.00 0.48 0.48 82 1036.9
20260902131803 17 247 32.2 32.2 0.00 0.48 0.48 82 1036.9
20260902130903 17 247 32.2 32.2 0.00 0.48 0.48 82 1036.9
20260902130003 16 247 32.2 32.2 0.03 0.48 0.48 82 1036.9
20260902125403 16 247 32.2 32.2 0.03 0.48 0.48 82 1036.9
20260902124503 16 247 32.2 32.2 0.03 0.48 0.48 82 1036.9
20260902123624 16 247 32.2 32.2 0.03 0.48 0.48 82 1036.9
20260902122703 16 247 32.2 32.2 0.23 0.48 0.48 81 1036.9
20260902121824 16 247 32.2 32.2 0.23 0.48 0.48 81 1036.9
20260902120903 16 247 32.2 32.2 0.23 0.48 0.48 81 1036.9
20260902120003 17 247 32.2 32.2 0.38 0.46 0.46 77 1037.9
20260902115403 17 247 32.2 32.2 0.38 0.46 0.46 77 1037.9
20260902114503 17 247 32.2 32.2 0.38 0.46 0.46 77 1037.9
20260902113603 17 247 32.2 32.2 0.38 0.46 0.46 77 1037.9
20260902112703 17 247 32.2 32.2 0.18 0.23 0.23 76 1037.9
20260902111803 17 247 32.2 32.2 0.18 0.23 0.23 76 1037.9
20260902110903 17 247 32.2 32.2 0.18 0.23 0.23 76 1037.9
20260902110005 17 247 32.2 32.2 0.03 0.05 0.05 79 1037.9
20260902105403 17 247 32.2 32.2 0.03 0.05 0.05 79 1037.9
20260902104503 17 247 32.2 32.2 0.03 0.05 0.05 79 1037.9
20260902103603 17 247 32.2 32.2 0.03 0.05 0.05 79 1037.9
20260902102703 16 247 32.2 32.2 0.03 0.05 0.05 81 1037.9
20260902101803 16 247 32.2 32.2 0.03 0.05 0.05 81 1037.9
20260902100903 16 247 32.2 32.2 0.03 0.05 0.05 81 1037.9
20260902100003 15 247 32.2 32.2 0.00 0.03 0.03 85 1037.9
20260902095424 15 247 32.2 32.2 0.00 0.03 0.03 85 1037.9
20260902094503 15 247 32.2 32.2 0.00 0.03 0.03 85 1037.9
20260902093603 15 247 32.2 32.2 0.00 0.03 0.03 85 1037.9
20260902092703 15 247 32.2 32.2 0.03 0.03 0.03 84 1037.9
20260902091803 15 247 32.2 32.2 0.03 0.03 0.03 84 1037.9
20260902090903 15 247 32.2 32.2 0.03 0.03 0.03 84 1037.9
20260902090003 15 247 32.2 32.2 0.03 0.03 0.03 85 1037.9
20260902085424 15 247 32.2 32.2 0.03 0.03 0.03 85 1037.9
20260902084503 15 247 32.2 32.2 0.03 0.03 0.03 85 1037.9
20260902083603 15 247 32.2 32.2 0.03 0.03 0.03 85 1037.9
20260902082724 15 247 32.2 32.2 0.00 0.00 0.00 86 1038.9
20260902081803 15 247 32.2 32.2 0.00 0.00 0.00 86 1038.9
20260902080903 15 247 32.2 32.2 0.00 0.00 0.00 86 1038.9
20260902080003 14 247 32.2 32.2 0.00 0.00 0.00 87 1038.9
20260902075424 14 247 32.2 32.2 0.00 0.00 0.00 87 1038.9
20260902074503 14 247 32.2 32.2 0.00 0.00 0.00 87 1038.9
20260902073603 14 247 32.2 32.2 0.00 0.00 0.00 87 1038.9
20260902072703 14 247 32.2 32.2 0.00 0.00 0.00 88 1037.9
20260902071803 14 247 32.2 32.2 0.00 0.00 0.00 88 1037.9
20260902070924 14 247 32.2 32.2 0.00 0.00 0.00 88 1037.9
20260902070004 14 247 32.2 32.2 0.00 0.00 0.00 88 1037.9
20260902065403 14 247 32.2 32.2 0.00 0.00 0.00 88 1037.9
20260902064503 14 247 32.2 32.2 0.00 0.00 0.00 88 1037.9
20260902063603 14 247 32.2 32.2 0.00 0.00 0.00 88 1037.9
20260902062703 13 247 32.2 32.2 0.00 0.00 0.00 89 1037.9
20260902061803 13 247 32.2 32.2 0.00 0.00 0.00 89 1037.9
20260902060903 13 247 32.2 32.2 0.00 0.00 0.00 89 1037.9
20260902060003 13 247 32.2 32.2 0.00 0.00 0.00 89 1037.9
20260902055403 13 247 32.2 32.2 0.00 0.00 0.00 89 1037.9
20260902054503 13 247 32.2 32.2 0.00 0.00 0.00 89 1037.9
20260902053603 13 247 32.2 32.2 0.00 0.00 0.00 89 1037.9
20260902052724 13 247 32.2 32.2 0.00 0.00 0.00 88 1037.9
20260902051803 13 247 32.2 32.2 0.00 0.00 0.00 88 1037.9
20260902050903 13 247 32.2 32.2 0.00 0.00 0.00 88 1037.9
20260902050005 13 247 32.2 32.2 0.00 0.00 0.00 88 1037.9
20260902045424 13 247 32.2 32.2 0.00 0.00 0.00 88 1037.9
20260902044503 13 247 32.2 32.2 0.00 0.00 0.00 88 1037.9
20260902043624 13 247 32.2 32.2 0.00 0.00 0.00 88 1037.9
20260902042703 13 247 32.2 32.2 0.00 0.00 0.00 88 1037.9
20260902041803 13 247 32.2 32.2 0.00 0.00 0.00 88 1037.9
20260902040903 13 247 32.2 32.2 0.00 0.00 0.00 88 1037.9
20260902040024 13 247 32.2 32.2 0.00 0.00 0.00 88 1037.9
20260902035403 13 247 32.2 32.2 0.00 0.00 0.00 88 1037.9
20260902034503 13 247 32.2 32.2 0.00 0.00 0.00 88 1037.9
20260902033603 13 247 32.2 32.2 0.00 0.00 0.00 88 1037.9
20260902032703 14 247 32.2 32.2 0.00 0.00 0.00 87 1037.9
20260902031803 14 247 32.2 32.2 0.00 0.00 0.00 87 1037.9
20260902030924 14 247 32.2 32.2 0.00 0.00 0.00 87 1037.9
20260902030003 14 247 32.2 32.2 0.00 0.00 0.00 86 1037.9
20260902025403 14 247 32.2 32.2 0.00 0.00 0.00 86 1037.9
20260902024503 14 247 32.2 32.2 0.00 0.00 0.00 86 1037.9
20260902023603 14 247 32.2 32.2 0.00 0.00 0.00 86 1037.9
20260902022703 14 247 32.2 32.2 0.00 0.00 0.00 85 1037.9
20260902021803 14 247 32.2 32.2 0.00 0.00 0.00 85 1037.9
20260902020924 14 247 32.2 32.2 0.00 0.00 0.00 85 1037.9
20260902020003 15 247 32.2 32.2 0.00 0.00 0.00 83 1038.9
20260902015424 15 247 32.2 32.2 0.00 0.00 0.00 83 1038.9
20260902014503 15 247 32.2 32.2 0.00 0.00 0.00 83 1038.9
20260902013624 15 247 32.2 32.2 0.00 0.00 0.00 83 1038.9
20260902012703 15 247 32.2 32.2 0.00 0.00 0.00 82 1037.9
20260902011803 15 247 32.2 32.2 0.00 0.00 0.00 82 1037.9
20260902010903 15 247 32.2 32.2 0.00 0.00 0.00 82 1037.9
20260902010003 15 247 32.2 32.2 0.00 0.00 0.00 81 1037.9
20260902005424 15 247 32.2 32.2 0.00 0.00 0.00 81 1037.9
20260902004503 15 247 32.2 32.2 0.00 0.00 0.00 81 1037.9
20260902003603 15 247 32.2 32.2 0.00 0.00 0.00 81 1037.9
20260902002703 15 247 32.2 32.2 0.00 0.00 0.00 80 1038.9
20260902001803 15 247 32.2 32.2 0.00 0.00 0.00 80 1038.9
20260902000903 15 247 32.2 32.2 0.00 0.00 0.00 80 1038.9
20260902000024 15 247 32.2 32.2 0.00 0.00 0.00 79 1038.9
20260901235403 15 247 32.2 32.2 0.00 0.00 0.00 79 1038.9
20260901234503 15 247 32.2 32.2 0.00 0.00 0.00 79 1038.9
20260901233603 15 247 32.2 32.2 0.00 0.00 0.00 79 1038.9
20260901232703 15 247 32.2 32.2 0.00 0.00 0.00 78 1038.9
20260901231803 15 247 32.2 32.2 0.00 0.00 0.00 78 1038.9
20260901230903 15 247 32.2 32.2 0.00 0.00 0.00 78 1038.9
20260901230004 15 247 32.2 32.2 0.00 0.00 0.00 78 1038.9
20260901225424 15 247 32.2 32.2 0.00 0.00 0.00 78 1038.9
20260901224503 15 247 32.2 32.2 0.00 0.00 0.00 78 1038.9
20260901223603 15 247 32.2 32.2 0.00 0.00 0.00 78 1038.9
20260901222703 16 247 32.2 32.2 0.00 0.00 0.00 77 1038.9
20260901221803 16 247 32.2 32.2 0.00 0.00 0.00 77 1038.9
20260901220924 16 247 32.2 32.2 0.00 0.00 0.00 77 1038.9
20260901220003 16 247 32.2 32.2 0.00 0.00 0.00 77 1038.9
20260901215403 16 247 32.2 32.2 0.00 0.00 0.00 77 1038.9
20260901214503 16 247 32.2 32.2 0.00 0.00 0.00 77 1038.9
20260901213624 16 247 32.2 32.2 0.00 0.00 0.00 77 1038.9
20260901212703 16 247 32.2 32.2 0.00 0.00 0.00 76 1038.9
20260901211803 16 247 32.2 32.2 0.00 0.00 0.00 76 1038.9
20260901210903 16 247 32.2 32.2 0.00 0.00 0.00 76 1038.9
20260901210003 16 247 32.2 32.2 0.00 0.00 0.00 75 1038.9
20260901205403 16 247 32.2 32.2 0.00 0.00 0.00 75 1038.9
20260901204503 16 247 32.2 32.2 0.00 0.00 0.00 75 1038.9
20260901203603 16 247 32.2 32.2 0.00 0.00 0.00 75 1038.9
20260901202703 17 247 32.2 32.2 0.00 0.00 0.00 74 1038.9
20260901201824 17 247 32.2 32.2 0.00 0.00 0.00 74 1038.9
20260901200903 17 247 32.2 32.2 0.00 0.00 0.00 74 1038.9
20260901200024 17 247 32.2 32.2 0.00 0.00 0.00 73 1038.9
20260901195424 17 247 32.2 32.2 0.00 0.00 0.00 73 1038.9
20260901194503 17 247 32.2 32.2 0.00 0.00 0.00 73 1038.9
20260901193624 17 247 32.2 32.2 0.00 0.00 0.00 73 1038.9
20260901192703 17 247 32.2 32.2 0.00 0.00 0.00 73 1038.9
20260901191803 17 247 32.2 32.2 0.00 0.00 0.00 73 1038.9
20260901190903 17 247 32.2 32.2 0.00 0.00 0.00 73 1038.9
20260901190003 17 247 32.2 32.2 0.00 0.00 0.00 73 1037.9
20260901185403 17 247 32.2 32.2 0.00 0.00 0.00 73 1037.9
20260901184503 17 247 32.2 32.2 0.00 0.00 0.00 73 1037.9
20260901183603 17 247 32.2 32.2 0.00 0.00 0.00 73 1037.9
20260901182703 17 247 32.2 32.2 0.00 0.00 0.00 73 1037.9
20260901181803 17 247 32.2 32.2 0.00 0.00 0.00 73 1037.9
20260901180924 17 247 32.2 32.2 0.00 0.00 0.00 73 1037.9
20260901180003 17 247 32.2 32.2 0.00 0.00 0.00 72 1037.9
20260901175403 17 247 32.2 32.2 0.00 0.00 0.00 72 1037.9
20260901174524 17 247 32.2 32.2 0.00 0.00 0.00 72 1037.9
20260901173603 17 247 32.2 32.2 0.00 0.00 0.00 72 1037.9
20260901172703 18 247 32.2 32.2 0.00 0.00 0.00 72 1038.9
20260901171803 18 247 32.2 32.2 0.00 0.00 0.00 72 1038.9
20260901170903 18 247 32.2 32.2 0.00 0.00 0.00 72 1038.9
20260901170003 18 247 32.2 32.2 0.00 0.00 0.00 71 1038.9
20260901165403 18 247 32.2 32.2 0.00 0.00 0.00 71 1038.9
20260901164503 18 247 32.2 32.2 0.00 0.00 0.00 71 1038.9
20260901163603 18 247 32.2 32.2 0.00 0.00 0.00 71 1038.9
20260901162724 18 247 32.2 32.2 0.00 0.00 0.00 71 1038.9
20260901161803 18 247 32.2 32.2 0.00 0.00 0.00 71 1038.9
20260901160903 18 247 32.2 32.2 0.00 0.00 0.00 71 1038.9
20260901160024 18 247 32.2 32.2 0.00 0.00 0.00 70 1038.9
20260901155403 18 247 32.2 32.2 0.00 0.00 0.00 70 1038.9
20260901154503 18 247 32.2 32.2 0.00 0.00 0.00 70 1038.9
20260901153603 18 247 32.2 32.2 0.00 0.00 0.00 70 1038.9
20260901152703 18 247 32.2 32.2 0.00 0.00 0.00 70 1038.9
20260901151803 18 247 32.2 32.2 0.00 0.00 0.00 70 1038.9
20260901150903 18 247 32.2 32.2 0.00 0.00 0.00 70 1038.9
20260901150003 18 247 32.2 32.2 0.00 0.00 0.00 68 1038.9
20260901145403 18 247 32.2 32.2 0.00 0.00 0.00 68 1038.9
20260901144503 18 247 32.2 32.2 0.00 0.00 0.00 68 1038.9